Location: Newark
(31.9382°N, 81.3138°W)
Time: 22:28:17
(UTC+00:00)

LightSail 2 - Visible Passes

Search period start: 06 April 2020 00:00
Search period end: 16 April 2020 00:00
Orbit: 694 x 724 km, 24.0° (Epoch: 06 April)

Date Brightness Start Highest point End Pass type
(mag) Time Alt. Az. Time Alt. Az. Time Alt. Az.
06 Apr 6.7 09:43:08 18° SSW 09:45:03 23° SSE 09:48:58 10° ESE visible
07 Apr 7.2 08:47:28 16° SE 08:47:28 16° SE 08:49:26 10° ESE visible
07 Apr 6.3 10:26:27 10° SW 10:30:52 31° S 10:35:18 10° ESE visible
08 Apr 6.3 09:30:39 26° SSW 09:31:44 28° S 09:36:01 10° ESE visible
09 Apr 7.2 08:34:56 18° SE 08:34:56 18° SE 08:36:39 10° ESE visible
09 Apr 6.1 10:13:49 14° WSW 10:17:33 33° S 10:22:04 10° ESE visible
10 Apr 6.0 09:18:06 32° S 09:18:24 32° S 09:22:52 10° ESE visible
11 Apr 7.4 08:22:23 16° ESE 08:22:23 16° ESE 08:23:35 10° ESE visible
11 Apr 6.1 10:01:16 18° SW 10:04:14 32° S 10:08:42 10° ESE visible
12 Apr 6.1 09:05:34 32° SSE 09:05:34 32° SSE 09:09:33 10° ESE visible
13 Apr 7.7 08:09:55 12° ESE 08:09:55 12° ESE 08:10:21 10° ESE visible
13 Apr 6.2 09:48:48 22° SW 09:50:51 29° S 09:55:10 10° SE visible
14 Apr 6.5 08:53:11 26° SSE 08:53:11 26° SSE 08:56:06 10° ESE visible
14 Apr 6.7 10:32:59 10° WSW 10:36:35 20° SSW 10:40:09 10° SSE visible
15 Apr 6.3 09:36:32 23° SSW 09:37:24 24° SSW 09:41:24 10° SE visible
